Wind_Speed
14 14 13 12 11 10 9 8 7 6 5 3 3 2 2 2 2 2 3 3 3 2 2 1 1 1 1 1 1 1 1 1 2 3 3 4 4 4 4 4 4 4 5
14 14 13 13 12 12 11 10 9 8 7 5 4 3 2 1 1 0 1 1 2 2 2 2 1 1 1 1 1 1 1 2 2 3 4 5 5 5 6 6 6 6 6
15 14 13 13 13 13 12 12 11 10 8 7 6 5 4 3 2 2 2 2 2 3 3 3 3 3 2 2 2 2 3 3 4 4 5 6 6 7 7 7 7 8 8
16 15 14 14 13 14 14 13 12 11 10 9 8 7 6 5 5 4 4 4 4 4 4 3 4 4 4 3 4 4 4 5 5 6 6 6 7 8 8 9 9 10 11
17 16 15 15 14 14 14 14 13 13 12 11 10 9 8 7 7 7 7 6 6 5 5 5 5 6 5 5 6 6 6 7 8 8 8 9 9 10 11 11 12 12 13
17 17 16 15 15 14 14 14 14 13 13 12 11 10 9 8 8 9 9 9 8 8 8 7 7 7 7 8 8 9 9 9 10 10 11 11 12 13 13 14 14 15 16
17 17 16 16 16 15 14 14 14 14 13 12 12 12 11 10 10 10 10 10 10 10 9 9 9 9 10 10 10 11 11 12 12 13 13 14 15 15 16 16 17 17 18
17 18 18 17 16 15 15 14 14 13 13 13 13 13 13 12 12 12 11 11 12 11 11 11 11 12 12 12 12 12 13 14 15 16 16 17 17 18 19 19 19 20 21
17 17 18 18 17 16 16 15 15 15 14 13 13 13 13 14 13 13 13 13 14 14 14 13 14 13 14 14 15 16 16 17 18 18 19 20 20 21 21 22 23 23 24
18 18 17 18 17 17 17 17 16 16 15 15 14 14 14 14 14 14 14 14 14 14 15 15 16 16 17 17 17 18 19 20 20 21 22 23 23 24 24 24 25 26 26
18 18 18 18 18 18 17 17 17 16 16 16 16 15 15 15 15 15 15 15 15 16 16 16 17 18 19 20 20 20 21 22 23 24 25 25 26 26 27 27 28 28 29
19 19 19 20 19 19 19 18 17 17 17 17 17 16 16 17 17 16 16 16 16 17 18 18 19 19 20 21 22 23 23 24 25 26 27 27 28 29 29 30 30 31 32
19 19 19 19 19 19 19 19 18 17 17 17 18 18 18 18 18 18 18 19 19 20 20 21 21 22 23 23 24 24 25 26 26 27 28 29 30 31 32 33 33 34 34
18 19 19 19 19 19 19 19 19 19 18 18 18 19 19 20 20 21 22 22 22 23 24 24 24 24 25 26 27 28 28 28 29 29 30 31 32 32 34 34 35 36 37
18 19 19 19 19 18 18 18 18 19 19 19 20 20 21 21 22 23 23 24 24 25 26 26 26 27 28 28 29 30 30 31 32 32 33 33 34 35 36 37 38 39 40
18 17 18 18 18 18 18 19 19 19 19 20 21 21 21 22 23 24 25 26 26 27 28 28 29 30 31 31 32 32 33 34 35 35 36 37 37 38 39 40 41 42 43
17 17 18 18 19 19 19 19 20 20 20 20 21 21 22 23 24 25 26 27 28 28 29 30 30 31 32 33 34 35 36 37 38 38 39 40 41 42 43 43 44 45 46
18 18 18 18 18 19 20 20 21 21 22 23 23 24 24 25 26 27 28 29 29 29 30 31 32 32 33 35 36 37 38 39 40 41 42 43 44 45 46 46 47 48 49
19 19 19 20 20 20 21 22 22 23 24 25 25 26 27 27 28 29 29 29 30 31 31 32 33 35 36 37 38 39 39 40 42 43 44 45 47 48 48 49 50 51 52
20 20 20 21 21 21 22 23 23 24 25 26 26 27 28 29 30 30 31 32 33 33 34 35 36 37 38 39 40 41 42 43 44 46 47 48 49 50 51 52 53 54 54
21 21 21 22 22 22 23 23 24 26 27 27 28 30 31 31 32 32 33 34 35 35 37 38 39 40 41 42 43 44 45 46 47 48 49 50 51 53 53 54 55 56 57
22 22 23 23 24 24 24 25 26 27 28 29 30 31 31 32 32 33 34 35 36 38 39 40 41 42 43 44 45 46 48 49 50 51 52 53 54 54 55 56 56 58 59
23 23 24 24 25 25 26 26 27 28 29 30 31 31 32 33 34 35 36 37 39 40 41 42 43 44 45 46 47 49 50 51 52 53 54 55 56 56 57 58 59 60 61
24 24 25 25 26 26 27 28 28 29 29 31 31 32 34 35 36 37 38 39 40 41 42 43 44 45 46 48 49 50 52 53 54 55 56 56 57 58 58 59 60 61 62
25 26 26 27 27 28 29 29 30 31 32 33 34 35 36 37 38 38 39 40 42 43 44 45 46 47 48 50 51 52 53 55 56 56 57 57 58 59 60 61 62 63 64
27 27 27 28 29 29 30 31 32 32 33 34 36 37 38 39 39 40 41 42 44 45 46 47 48 49 50 51 53 54 55 55 56 57 58 58 59 60 61 62 63 64 64
Wind_Direction
206 206 205 207 206 205 203 202 201 197 189 183 173 155 134 116 94 75 60 58 60 55 52 31 26 53 57 61 39 30 31 24 7 355 347 346 342 341 340 341 333 318 306
208 207 207 208 208 208 206 206 206 206 206 207 205 203 195 182 158 110 22 23 16 7 353 337 338 323 326 329 334 326 325 329 329 328 324 322 321 315 314 313 314 313 311
208 208 209 210 212 210 208 209 210 213 215 217 218 222 232 238 244 264 287 308 323 326 321 310 303 291 290 309 314 314 312 313 317 316 313 314 317 313 309 306 307 306 305
211 213 214 215 216 214 211 214 216 218 219 221 225 232 239 248 257 264 272 280 291 303 301 294 291 290 289 289 292 292 293 299 304 305 305 308 312 311 309 306 305 305 304
215 217 218 220 220 219 218 219 222 223 223 225 229 235 241 248 258 265 267 274 280 289 292 287 280 283 285 288 290 290 291 293 298 301 301 304 304 303 304 303 301 300 301
217 218 219 221 222 222 224 225 226 227 229 230 232 238 243 251 260 267 267 271 276 280 283 283 279 276 279 284 287 288 289 291 294 298 300 301 302 302 301 300 300 299 298
218 220 219 222 225 226 227 229 228 229 232 235 238 242 249 255 261 266 268 269 274 278 279 279 279 276 277 281 284 285 287 288 289 293 296 298 300 300 299 298 297 297 297
221 223 222 223 225 227 229 230 230 231 235 238 241 245 251 256 261 263 264 268 270 274 277 279 280 279 280 282 283 284 286 288 290 291 293 295 297 298 297 296 295 295 295
219 222 223 223 224 227 230 231 233 233 235 239 243 248 252 256 259 262 264 267 269 270 272 275 275 277 278 281 283 284 284 285 286 289 290 292 294 295 295 295 294 294 294
220 222 223 224 226 229 231 233 234 235 236 240 245 249 252 256 261 263 265 268 270 272 274 276 276 276 278 280 282 285 286 286 287 288 289 290 291 292 293 294 294 294 294
224 226 226 228 229 230 233 237 237 238 240 242 247 251 254 258 261 264 266 269 272 275 277 278 279 279 279 281 282 284 286 287 287 288 289 289 290 291 292 293 293 294 294
225 228 231 231 233 235 237 239 240 243 245 247 251 253 257 259 262 264 267 270 273 274 276 278 281 282 283 283 284 285 286 287 288 289 289 289 290 291 292 293 293 293 294
228 230 231 233 234 236 238 239 241 245 249 250 252 255 258 260 262 265 269 272 274 275 277 278 280 282 284 285 286 287 288 289 290 290 291 291 291 291 292 293 294 294 294
231 233 234 236 237 239 240 242 244 246 248 250 253 256 260 263 265 268 270 273 276 277 277 277 280 282 283 284 286 287 288 289 290 291 292 291 292 292 292 293 294 294 295
235 236 237 237 238 239 242 245 247 249 250 253 256 258 261 264 267 269 271 274 276 277 278 279 281 282 283 284 286 287 288 289 290 291 291 292 293 293 293 293 293 293 294
236 236 237 238 240 242 245 247 248 251 253 255 257 260 263 266 269 271 273 275 277 278 279 281 282 283 284 285 286 286 287 288 290 290 291 292 292 293 293 293 293 293 293
236 238 238 240 242 244 248 250 251 254 256 258 261 264 266 269 272 274 276 277 278 279 280 282 284 285 285 286 286 287 288 289 290 291 291 291 292 292 293 293 293 293 294
239 240 241 243 246 249 251 255 257 259 261 263 265 267 270 272 274 277 279 280 281 282 283 284 285 286 287 287 288 288 289 290 290 290 291 291 292 292 292 292 293 293 294
242 243 244 247 250 254 257 259 261 263 265 267 268 271 273 275 277 280 281 281 282 284 284 285 286 287 288 288 289 289 289 290 290 291 292 292 292 292 293 293 293 293 294
245 247 249 251 254 257 260 262 263 265 267 268 271 273 274 277 279 281 282 283 284 285 285 286 287 288 288 289 289 290 290 291 291 292 292 292 292 293 293 293 293 293 293
248 250 253 255 257 260 262 265 267 268 270 272 274 276 278 280 281 282 283 284 285 286 287 287 288 289 289 289 290 290 291 291 292 292 293 293 293 294 294 294 294 294 294
252 255 257 259 260 262 265 269 271 273 274 275 277 279 281 283 284 285 285 286 286 287 288 288 289 290 290 290 291 291 292 292 292 293 293 294 294 294 294 294 294 294 295
255 257 259 260 263 265 268 271 274 275 276 278 279 281 282 283 285 286 287 287 288 289 290 290 291 291 292 292 292 293 293 293 293 294 294 294 294 294 294 295 295 295 296
259 260 263 264 265 268 271 273 275 276 277 279 281 282 283 284 286 287 289 290 290 291 292 292 292 293 293 293 293 294 294 294 295 295 295 295 295 295 295 295 295 296 296
263 264 266 267 269 272 274 275 277 279 280 281 282 283 284 286 288 289 290 291 291 292 292 293 293 293 294 294 294 295 295 295 295 295 295 295 295 295 295 295 296 296 296
265 266 268 270 271 273 275 277 279 281 282 283 284 285 287 288 290 291 291 292 293 293 293 294 294 294 295 295 296 296 296 296 296 296 296 296 296 297 296 296 296 296 296
Height
5861 5863 5865 5866 5868 5869 5870 5872 5873 5873 5874 5874 5874 5875 5874 5874 5874 5874 5873 5873 5872 5872 5871 5871 5871 5870 5870 5870 5870 5869 5869 5869 5869 5868 5867 5867 5866 5864 5863 5862 5861 5860 5859
5859 5861 5863 5864 5866 5867 5869 5870 5871 5872 5873 5874 5874 5874 5874 5874 5874 5874 5873 5873 5872 5872 5871 5870 5870 5870 5870 5870 5869 5869 5869 5868 5868 5868 5867 5866 5865 5864 5863 5862 5860 5859 5858
5856 5859 5861 5862 5864 5865 5867 5868 5870 5871 5872 5872 5873 5873 5874 5874 5873 5873 5873 5873 5872 5871 5870 5870 5869 5869 5869 5869 5869 5868 5868 5868 5867 5867 5866 5865 5864 5863 5862 5861 5859 5858 5857
5854 5856 5858 5860 5861 5863 5864 5866 5868 5869 5870 5871 5871 5872 5872 5873 5873 5872 5872 5872 5871 5870 5870 5869 5868 5868 5868 5868 5868 5867 5867 5867 5866 5866 5865 5864 5863 5862 5860 5859 5858 5857 5855
5851 5854 5856 5857 5859 5860 5862 5864 5865 5867 5868 5869 5869 5870 5871 5871 5871 5871 5871 5870 5870 5869 5868 5868 5867 5867 5867 5867 5866 5866 5866 5865 5865 5864 5863 5862 5861 5860 5858 5857 5856 5854 5852
5848 5851 5853 5855 5856 5858 5859 5861 5863 5864 5865 5866 5867 5868 5868 5869 5869 5869 5869 5868 5868 5867 5867 5866 5865 5865 5865 5865 5864 5864 5864 5863 5863 5862 5861 5860 5858 5857 5856 5854 5853 5851 5849
5845 5848 5849 5852 5853 5855 5857 5858 5860 5861 5863 5864 5864 5865 5866 5866 5866 5866 5866 5866 5866 5865 5864 5864 5863 5863 5862 5862 5862 5862 5861 5860 5860 5859 5858 5857 5856 5854 5852 5851 5849 5847 5845
5842 5844 5846 5848 5850 5852 5854 5855 5857 5858 5859 5861 5861 5862 5863 5863 5863 5864 5863 5863 5863 5862 5862 5861 5861 5860 5860 5859 5859 5859 5858 5857 5856 5855 5854 5853 5852 5850 5848 5846 5844 5842 5841
5839 5841 5843 5845 5847 5849 5851 5852 5853 5855 5856 5857 5858 5859 5859 5860 5860 5860 5860 5860 5860 5859 5859 5858 5858 5857 5857 5856 5856 5855 5854 5853 5852 5851 5850 5848 5847 5845 5843 5841 5839 5837 5835
5836 5838 5840 5842 5844 5846 5847 5849 5850 5851 5853 5854 5854 5855 5856 5856 5857 5857 5857 5856 5856 5856 5855 5855 5854 5853 5853 5852 5851 5850 5849 5848 5847 5846 5844 5843 5841 5839 5837 5835 5833 5831 5828
5832 5834 5836 5838 5840 5842 5844 5845 5846 5847 5849 5850 5851 5852 5852 5853 5853 5853 5853 5853 5852 5852 5851 5851 5850 5849 5848 5847 5846 5845 5844 5843 5841 5840 5838 5836 5834 5832 5830 5828 5826 5823 5821
5829 5831 5833 5835 5836 5838 5840 5841 5842 5843 5845 5846 5847 5847 5848 5848 5849 5849 5849 5849 5848 5847 5847 5846 5845 5844 5843 5842 5841 5839 5838 5836 5835 5833 5831 5829 5827 5825 5822 5820 5817 5815 5812
5825 5827 5828 5830 5832 5834 5835 5837 5838 5839 5840 5841 5842 5843 5843 5844 5844 5844 5844 5844 5843 5842 5842 5841 5840 5838 5837 5836 5834 5833 5831 5829 5828 5826 5824 5821 5819 5816 5814 5811 5808 5805 5803
5821 5822 5824 5826 5828 5829 5831 5832 5834 5835 5836 5837 5837 5838 5838 5839 5839 5839 5838 5838 5837 5836 5836 5834 5833 5832 5831 5829 5828 5826 5824 5822 5820 5818 5816 5813 5810 5808 5805 5802 5799 5796 5793
5816 5818 5820 5821 5823 5825 5826 5828 5829 5830 5831 5832 5832 5833 5833 5833 5833 5833 5832 5832 5831 5830 5829 5828 5826 5825 5823 5822 5820 5818 5816 5814 5812 5809 5807 5804 5801 5798 5795 5792 5789 5785 5782
5812 5814 5815 5817 5819 5820 5821 5823 5823 5825 5825 5826 5827 5827 5827 5827 5827 5826 5826 5825 5823 5823 5822 5820 5819 5817 5815 5813 5811 5809 5807 5805 5802 5800 5797 5794 5791 5788 5785 5781 5778 5774 5771
5808 5810 5811 5812 5814 5815 5817 5818 5819 5820 5820 5820 5821 5821 5821 5821 5820 5819 5818 5817 5816 5815 5814 5812 5810 5809 5806 5804 5802 5800 5798 5795 5792 5789 5786 5783 5780 5777 5773 5769 5766 5762 5758
5804 5805 5806 5808 5809 5810 5811 5812 5813 5814 5814 5814 5814 5814 5814 5813 5813 5812 5811 5810 5808 5807 5805 5804 5802 5800 5797 5795 5793 5790 5787 5784 5781 5778 5775 5771 5768 5764 5760 5757 5753 5749 5744
5799 5800 5801 5803 5804 5805 5806 5807 5807 5808 5808 5808 5808 5807 5807 5806 5805 5804 5803 5801 5800 5798 5796 5794 5792 5790 5787 5785 5782 5779 5776 5773 5770 5766 5762 5759 5755 5751 5747 5743 5738 5734 5730
5794 5795 5796 5797 5798 5799 5800 5800 5800 5801 5800 5800 5800 5800 5799 5798 5797 5796 5794 5792 5791 5789 5786 5784 5782 5779 5777 5774 5771 5768 5765 5761 5757 5753 5750 5745 5741 5737 5732 5728 5723 5719 5714
5788 5789 5790 5791 5792 5793 5793 5793 5793 5793 5793 5793 5792 5791 5790 5789 5788 5786 5784 5783 5781 5778 5776 5773 5771 5768 5765 5762 5758 5755 5752 5748 5744 5740 5735 5731 5726 5721 5717 5712 5707 5702 5697
5782 5783 5784 5785 5786 5786 5786 5786 5786 5785 5785 5784 5783 5782 5781 5779 5778 5776 5774 5772 5770 5767 5765 5762 5759 5756 5752 5749 5745 5742 5738 5734 5729 5725 5720 5715 5710 5706 5701 5695 5690 5685 5680
5776 5776 5777 5778 5778 5778 5778 5778 5778 5777 5776 5775 5774 5773 5771 5770 5768 5766 5764 5761 5758 5756 5753 5750 5746 5743 5739 5735 5731 5727 5723 5719 5714 5709 5704 5699 5694 5689 5684 5678 5673 5667 5662
5769 5769 5769 5770 5770 5770 5770 5769 5769 5768 5767 5766 5765 5763 5761 5759 5757 5755 5752 5749 5746 5743 5740 5737 5733 5729 5725 5721 5717 5712 5707 5703 5698 5693 5688 5683 5677 5672 5666 5660 5655 5649 5643
5761 5761 5762 5762 5762 5761 5761 5760 5760 5759 5757 5756 5754 5753 5751 5748 5746 5743 5740 5737 5734 5730 5727 5723 5719 5715 5711 5706 5701 5697 5692 5686 5681 5676 5670 5665 5659 5654 5648 5642 5636 5630 5623
5753 5753 5753 5753 5753 5752 5752 5751 5750 5748 5747 5745 5743 5741 5739 5736 5734 5731 5728 5724 5721 5717 5713 5709 5705 5700 5696 5691 5686 5681 5675 5670 5664 5658 5653 5647 5641 5635 5629 5623 5616 5610 5604